[[{"header":{"parameterUnit":"m.s-1","parameterCategory":1,"la1":30.2991,"la2":30.254,"lo1":-89.0895,"lo2":-89.0444,"dy":0.0017,"dx":0.0017,"nx":28,"ny":28,"refTime":"2024-05-06T21:00:00:Z","depth":0,"parameterNumber":2,"parameterNumberName":"U-component_of_WINDS"},"data":[0,0,0,0,0,0,0,0,0,0,0,0,0,0,0,0,0,0,0,0,0,0,0,0,0,0,0,0,0,0,0,0,0,0,0,0,0,0,0,0,0,0,0,0,0,0,0,0,0,0,0,0,0,0,0,0,0,0,-1.1618,-1.1619,0,-1.1681,-1.1682,-1.1683,-1.1708,-1.1707,-1.1707,-1.1707,-1.1774,-1.1776,-1.1778,0,0,0,0,0,0,0,0,0,0,0,0,0,-1.152,-1.1522,-1.1618,-1.1619,-1.1619,-1.1681,-1.1682,-1.1683,-1.1708,-1.1707,-1.1707,-1.1707,-1.1773,-1.1776,-1.1778,0,0,0,0,0,0,0,0,0,0,0,0,0,-1.1571,-1.1523,-1.1618,-1.1639,-1.1642,-1.1681,-1.1682,-1.1683,-1.1708,-1.1707,-1.1707,-1.1707,-1.1773,-1.1775,-1.1778,-1.1802,0,0,-1.1787,-1.1788,0,0,0,0,0,0,0,0,-1.1568,-1.1575,-1.1635,-1.1638,-1.1641,-1.1686,-1.1672,-1.1723,-1.1708,-1.1683,-1.1707,-1.1707,-1.1745,-1.175,-1.1763,-1.1805,-1.1808,-1.1787,-1.1789,-1.179,-1.1791,0,0,0,0,0,0,0,-1.1565,-1.1572,-1.1643,-1.1636,-1.1639,-1.1646,-1.1653,-1.1682,-1.1715,-1.1685,-1.1687,-1.1694,-1.1747,-1.176,-1.1765,-1.1809,-1.1787,-1.179,-1.1792,-1.1793,-1.1875,-1.1875,0,0,0,0,0,0,-1.1557,-1.1569,-1.1641,-1.1645,-1.1603,-1.1648,-1.1656,-1.1672,-1.1714,-1.1721,-1.1694,-1.1695,-1.1755,-1.1761,-1.1767,-1.1798,-1.179,-1.1793,-1.1795,-1.1875,-1.1875,-1.1875,0,0,0,0,0,0,-1.1555,-1.1564,-1.1638,-1.1608,-1.1618,-1.165,-1.1668,-1.1673,-1.1687,-1.1721,-1.1728,-1.1702,-1.1755,-1.1763,-1.1793,-1.1801,-1.1795,-1.1797,-1.1874,-1.1875,-1.1875,-1.186,0,0,0,0,0,0,-1.1552,-1.1563,-1.1571,-1.1608,-1.1619,-1.1663,-1.1668,-1.1675,-1.1691,-1.1693,-1.173,-1.1736,-1.1756,-1.1789,-1.1796,-1.1805,-1.1799,-1.1873,-1.1874,-1.1875,-1.186,-1.186,-1.186,0,0,0,0,0,-1.1549,-1.1564,-1.1571,-1.158,-1.163,-1.1663,-1.167,-1.1691,-1.1692,-1.1701,-1.1724,-1.1735,-1.1799,-1.1792,-1.18,-1.181,-1.1873,-1.1874,-1.1875,-1.186,-1.186,-1.186,0,0,0,0,0,0,-1.1528,-1.1569,-1.1578,-1.1605,-1.163,-1.1667,-1.1679,-1.1691,-1.1716,-1.1717,-1.1743,-1.1752,-1.178,-1.1798,-1.1789,-1.1835,-1.1837,-1.184,-1.1822,-1.1823,-1.1823,-1.1818,-1.1802,0,0,0,0,0,-1.1527,-1.1549,-1.1584,-1.1605,-1.1617,-1.1646,-1.1661,-1.1676,-1.1703,-1.1714,-1.1739,-1.1765,-1.1792,-1.1808,-1.1834,-1.1863,-1.1872,-1.1874,-1.1874,-1.1874,-1.1876,-1.1893,-1.1894,-1.1879,-1.1879,-1.1879,0,0,-1.1524,-1.1549,-1.1562,-1.1602,-1.1623,-1.1646,-1.1655,-1.1679,-1.1697,-1.1718,-1.1748,-1.1767,-1.1799,-1.1828,-1.1843,-1.1844,-1.1882,-1.1875,-1.1874,-1.1877,-1.1894,-1.1896,-1.1897,-1.1879,-1.1879,-1.1879,0,0,-1.1531,-1.1552,-1.1573,-1.1594,-1.1626,-1.1645,-1.165,-1.1685,-1.1699,-1.1729,-1.1746,-1.1768,-1.1812,-1.1834,-1.1851,-1.1869,-1.188,-1.1877,-1.1877,-1.1893,-1.1894,-1.1896,-1.1902,-1.1904,-1.1878,-1.1878,-1.1878,0,-1.1524,-1.1559,-1.1582,-1.1605,-1.1623,-1.1643,-1.1664,-1.1684,-1.1723,-1.1735,-1.1736,-1.1793,-1.1816,-1.1851,-1.1856,-1.1869,-1.1876,-1.1872,-1.1892,-1.1894,-1.1895,-1.1902,-1.1904,-1.1878,-1.1878,-1.1878,-1.1878,0,-1.1549,-1.1573,-1.1586,-1.1622,-1.1642,-1.1664,-1.1691,-1.1708,-1.1721,-1.1741,-1.1773,-1.1801,-1.1833,-1.1843,-1.1856,-1.1881,-1.1881,-1.1887,-1.1889,-1.1896,-1.1902,-1.1905,-1.1877,-1.1877,-1.1877,-1.1877,0,0,-1.1544,-1.1594,-1.1598,-1.1615,-1.1652,-1.1672,-1.1696,-1.1727,-1.1742,-1.1768,-1.179,-1.1828,-1.1834,-1.1853,-1.187,-1.1884,-1.1897,-1.1889,-1.189,-1.1889,-1.1926,-1.1921,-1.1924,-1.1905,-1.1905,-1.1906,-1.1924,0,-1.1556,-1.1598,-1.162,-1.1654,-1.1677,-1.1697,-1.1718,-1.1744,-1.1763,-1.1787,-1.1808,-1.1835,-1.1841,-1.1853,-1.1868,-1.1892,-1.1905,-1.1891,-1.1925,-1.1926,-1.1916,-1.1927,-1.1922,-1.1937,-1.1926,-1.1927,-1.1927,0,-1.1575,-1.1602,-1.1637,-1.1673,-1.1683,-1.1702,-1.1733,-1.1755,-1.1785,-1.1798,-1.182,-1.1837,-1.1864,-1.1864,-1.1902,-1.1893,-1.1908,-1.1922,-1.1924,-1.1927,-1.1927,-1.1931,-1.1943,-1.1945,-1.1932,-1.1931,-1.1931,0,-1.1568,-1.1613,-1.164,-1.1654,-1.1696,-1.1709,-1.1727,-1.1757,-1.1775,-1.1803,-1.1815,-1.1845,-1.1862,-1.1886,-1.1911,-1.1909,-1.1947,-1.1949,-1.1959,-1.1959,-1.1966,-1.1965,-1.198,-1.1976,-1.1976,-1.1976,-1.1976,0,-1.158,-1.1601,-1.1637,-1.1654,-1.1679,-1.1704,-1.1729,-1.1749,-1.1775,-1.1797,-1.1817,-1.1837,-1.1869,-1.1893,-1.1913,-1.1942,-1.195,-1.1961,-1.1966,-1.196,-1.1958,-1.197,-1.1969,-1.1977,-1.1977,-1.1976,-1.1976,0,-1.1575,-1.1601,-1.1632,-1.1669,-1.1679,-1.1696,-1.1729,-1.1746,-1.1767,-1.1795,-1.1803,-1.1835,-1.1865,-1.1893,-1.1932,-1.1946,-1.1975,-1.1982,-1.1965,-1.1968,-1.1976,-1.1975,-1.1999,-1.2003,-1.1997,-1.1997,-1.1997,0,-1.1581,-1.1597,-1.1637,-1.1652,-1.167,-1.1695,-1.1714,-1.174,-1.1759,-1.1795,-1.1809,-1.184,-1.1867,-1.1914,-1.1942,-1.1973,-1.198,-1.1987,-1.1985,-1.1978,-1.1981,-1.1979,-1.1981,-1.1986,-1.1986,-1.1986,-1.1986,0,-1.1588,-1.16,-1.1625,-1.1655,-1.1676,-1.1701,-1.1727,-1.1739,-1.1771,-1.1791,-1.1822,-1.1842,-1.1883,-1.1914,-1.1949,-1.1969,-1.1983,-1.1986,-1.199,-1.1983,-1.1973,-1.1979,-1.1964,-1.1985,-1.1986,-1.1986,-1.1986,-1.1986,-1.1589,-1.1605,-1.1635,-1.1663,-1.1685,-1.1709,-1.1727,-1.1751,-1.1777,-1.1811,-1.1826,-1.1857,-1.1889,-1.1936,-1.1956,-1.1982,-1.1985,-1.199,-1.1992,-1.1993,-1.1992,-1.1969,-1.1988,-1.1989,-1.1989,-1.1989,-1.1989,0,-1.1597,-1.1617,-1.1643,-1.1678,-1.17,-1.1711,-1.1741,-1.1759,-1.1786,-1.1814,-1.184,-1.1875,-1.1906,-1.1937,-1.197,-1.1984,-1.1992,-1.1992,-1.1991,-1.1996,-1.1987,-1.198,-1.1986,-1.1986,-1.1985,-1.1985,-1.1985,-1.1985,-1.1603,-1.1631,-1.1647,-1.1687,-1.1708,-1.1738,-1.1754,-1.1777,-1.1799,-1.1838,-1.1863,-1.1883,-1.1912,-1.1947,-1.1977,-1.1985,-1.1996,-1.1995,-1.2005,-1.1996,-1.1996,-1.1996,-1.199,-1.1997,-1.1997,-1.2011,-1.2011,-1.2011]},{"header":{"parameterUnit":"m.s-1","parameterCategory":1,"la1":30.2991,"la2":30.254,"lo1":-89.0895,"lo2":-89.0444,"dy":0.0017,"dx":0.0017,"nx":28,"ny":28,"refTime":"2024-05-06T21:00:00:Z","depth":0,"parameterNumber":3,"parameterNumberName":"V-component_of_WINDS"},"data":[0,0,0,0,0,0,0,0,0,0,0,0,0,0,0,0,0,0,0,0,0,0,0,0,0,0,0,0,0,0,0,0,0,0,0,0,0,0,0,0,0,0,0,0,0,0,0,0,0,0,0,0,0,0,0,0,0,0,6.3642,6.3643,0,6.3678,6.3678,6.3679,6.3614,6.3612,6.361,6.3608,6.3641,6.3643,6.3646,0,0,0,0,0,0,0,0,0,0,0,0,0,6.3513,6.3516,6.3642,6.3643,6.3643,6.3678,6.3678,6.3679,6.3615,6.3612,6.361,6.3607,6.364,6.3643,6.3646,0,0,0,0,0,0,0,0,0,0,0,0,0,6.3561,6.3517,6.3642,6.3615,6.3613,6.3678,6.3678,6.3679,6.3615,6.3612,6.3609,6.3606,6.3639,6.3643,6.3647,6.3738,0,0,6.366,6.3662,0,0,0,0,0,0,0,0,6.3558,6.3566,6.3619,6.3617,6.3615,6.3639,6.3645,6.3699,6.3616,6.3614,6.3608,6.3604,6.3642,6.3646,6.366,6.3739,6.3741,6.366,6.3663,6.3665,6.3666,0,0,0,0,0,0,0,6.3555,6.3564,6.3656,6.362,6.3617,6.36,6.3603,6.3655,6.3646,6.3614,6.361,6.3615,6.3641,6.3656,6.366,6.3741,6.366,6.3664,6.3667,6.3668,6.3895,6.3899,0,0,0,0,0,0,6.3556,6.3561,6.3655,6.3657,6.3578,6.3605,6.3608,6.3634,6.3645,6.3644,6.3618,6.3612,6.365,6.3655,6.3661,6.3767,6.3665,6.3669,6.3671,6.3892,6.3896,6.39,0,0,0,0,0,0,6.3553,6.3565,6.3653,6.3608,6.3618,6.3611,6.364,6.3637,6.3652,6.3648,6.3645,6.3635,6.3648,6.3655,6.3719,6.3767,6.3671,6.3675,6.3888,6.3893,6.3898,6.398,0,0,0,0,0,0,6.355,6.3564,6.36,6.361,6.3621,6.3713,6.3643,6.364,6.366,6.3652,6.3663,6.3662,6.3646,6.3713,6.3723,6.3771,6.3678,6.3884,6.389,6.3896,6.3973,6.3987,6.3999,0,0,0,0,0,6.3545,6.3621,6.3602,6.3614,6.3666,6.3716,6.3722,6.3703,6.3664,6.3699,6.3696,6.3662,6.376,6.372,6.3731,6.3781,6.388,6.3888,6.3896,6.3967,6.3984,6.3999,0,0,0,0,0,0,6.3616,6.3622,6.3601,6.3682,6.3699,6.3705,6.3748,6.3722,6.3749,6.3741,6.3715,6.3718,6.3787,6.379,6.3746,6.3869,6.3814,6.3824,6.3864,6.388,6.3893,6.389,6.3682,0,0,0,0,0,6.3641,6.3683,6.3685,6.3756,6.3766,6.3756,6.3777,6.3761,6.3777,6.3783,6.3785,6.3801,6.3835,6.3858,6.3889,6.3973,6.3974,6.4013,6.4026,6.4037,6.4046,6.4089,6.4106,6.3925,6.3925,6.3925,0,0,6.3693,6.3701,6.3729,6.3771,6.3782,6.3824,6.3762,6.381,6.384,6.379,6.3851,6.3853,6.3868,6.3943,6.3975,6.3948,6.4096,6.4047,6.4056,6.4059,6.4099,6.4116,6.4131,6.3931,6.393,6.3929,0,0,6.3808,6.382,6.388,6.3893,6.3911,6.3904,6.3918,6.3928,6.3928,6.3989,6.3952,6.3987,6.4047,6.4059,6.4073,6.4194,6.4162,6.4204,6.4273,6.4315,6.433,6.4342,6.4383,6.4398,6.4213,6.4214,6.4214,0,6.387,6.3934,6.3914,6.3964,6.3982,6.394,6.4,6.4012,6.404,6.4053,6.4022,6.4096,6.4103,6.4179,6.4208,6.4222,6.4236,6.4202,6.433,6.4342,6.4353,6.4392,6.4408,6.4219,6.4218,6.4217,6.4217,0,6.4008,6.4052,6.4098,6.4127,6.4151,6.4205,6.4192,6.4218,6.42,6.4195,6.4257,6.4265,6.4296,6.4313,6.4296,6.4386,6.4368,6.4334,6.4278,6.4375,6.4411,6.4426,6.4226,6.4224,6.4222,6.4221,0,0,6.4168,6.4185,6.4202,6.4214,6.4231,6.4264,6.4316,6.4348,6.437,6.439,6.4432,6.4484,6.4452,6.4468,6.4451,6.4489,6.4581,6.4449,6.4449,6.4472,6.4679,6.4704,6.4721,6.4561,6.4564,6.4566,6.4677,0,6.4282,6.4372,6.4356,6.4443,6.4483,6.4444,6.4488,6.4503,6.45,6.4532,6.4528,6.4565,6.4521,6.453,6.4566,6.4562,6.4622,6.4554,6.4598,6.4599,6.4593,6.474,6.4767,6.4871,6.4691,6.4694,6.4696,0,6.4426,6.4453,6.4545,6.4555,6.4571,6.4612,6.4639,6.4671,6.4686,6.4681,6.4699,6.4675,6.4725,6.467,6.4736,6.4691,6.4708,6.4709,6.4712,6.4714,6.4652,6.4744,6.4904,6.4919,6.4718,6.4716,6.4715,0,6.4532,6.459,6.4653,6.4664,6.4678,6.4707,6.4714,6.4725,6.4745,6.4769,6.4781,6.4811,6.4826,6.4848,6.4832,6.4794,6.4901,6.4845,6.4897,6.4897,6.492,6.4918,6.5083,6.4934,6.4934,6.4933,6.4933,0,6.4659,6.4717,6.47,6.4738,6.4801,6.478,6.4842,6.4844,6.4855,6.4891,6.4859,6.4893,6.4871,6.4903,6.4891,6.4947,6.4955,6.4951,6.4947,6.4953,6.4953,6.4962,6.4954,6.4938,6.4937,6.4936,6.4935,0,6.4787,6.4779,6.4843,6.4851,6.4854,6.49,6.4905,6.494,6.4935,6.4981,6.4991,6.4983,6.5019,6.5006,6.5044,6.5036,6.5107,6.5094,6.5102,6.5098,6.515,6.5145,6.5325,6.5346,6.5186,6.5187,6.5189,0,6.4868,6.4912,6.4924,6.4947,6.4956,6.4993,6.5013,6.4995,6.5017,6.5037,6.5069,6.5103,6.5129,6.5188,6.5185,6.5213,6.52,6.5261,6.5204,6.5208,6.5198,6.5195,6.5199,6.5272,6.5273,6.5275,6.5276,0,6.5013,6.5006,6.5038,6.5068,6.5093,6.5116,6.5135,6.5155,6.5137,6.5164,6.5201,6.5222,6.5261,6.5294,6.532,6.5325,6.5297,6.5295,6.5308,6.5314,6.5316,6.5314,6.5132,6.529,6.5289,6.5288,6.5287,6.5286,6.5118,6.5154,6.5169,6.5204,6.5217,6.5236,6.5269,6.5268,6.5299,6.533,6.5317,6.536,6.5372,6.5404,6.5413,6.5445,6.5421,6.5441,6.5446,6.545,6.5456,6.5313,6.545,6.545,6.5449,6.5449,6.5449,0,6.5259,6.5267,6.53,6.5328,6.5356,6.533,6.5349,6.5374,6.5412,6.5427,6.5453,6.5495,6.5527,6.5526,6.5556,6.5581,6.5569,6.5589,6.5586,6.5588,6.5477,6.5462,6.5599,6.5599,6.5599,6.5599,6.5599,6.5599,6.5336,6.5395,6.539,6.5455,6.5461,6.5504,6.5517,6.5533,6.5545,6.5594,6.5621,6.562,6.5628,6.5658,6.5686,6.5684,6.5696,6.5721,6.5714,6.5611,6.5596,6.5581,6.5567,6.5724,6.5724,6.5822,6.5823,6.5824]}]]